OPS 0856 DEB, 24676

Orbit data source: Space-Track

OPS 0856 DEB, 24676 is space debris in LEO originally from a launch on Fri, 19 Aug 1966 UTC launched from the Air Force Western Test Range (AFWTR). Debris objects in space refer to the collection of defunct objects orbiting the Earth. Examples of debris include non-operational satellites, rocket bodies, and fragments generated from explosions, collisions, or faulty payload assembly.

Loading next visibility...
Identifier
24676, 1966-077Q
Orbit
LEO
Country
Flag of USUS
Related business
Manufacturer
Unknown
Mission
Spacecraft
Bus & Motor
Unknown
Mass
Unknown
Launch date (UTC)
1966-08-19 (60 years ago)
Launch vehicle
Unknown
Launch site
Air Force Western Test Range (AFWTR)
Object type
Payload
Rocket body
Debris
Shape & HBR
Unknown shape, 0.1 m
Radar Cross Section
Small (<0.1 m²)

Expand to show TLE details & history
Last TLE update: 5 days ago

TLE from 5 days ago
0 OPS 0856 DEB
1 24676U 66077Q   26114.77333544 -.00011495  00000-0 -22142+0 0  9993
2 24676  88.1455  51.9789 2201727 338.4062  13.6430  9.05184962550645
Epoch: 2026-04-24T18:33Z
TLE epoch observation values (Epoch: 2026-04-24T18:33:36.182Z)
Latitude
0.00004°
Longitude
-79.2231°
Altitude
1,306.528 km
Speed
7.924 km/s
True Right ascension
03h 27m 54s
True Declination
0° 00' 00"
Sunlit
Object was in daylight at epoch
Visualization orbit readout
Latitude
Unknown
Longitude
Unknown
Altitude
Unknown
Speed
Unknown
Apparent Right ascension
Unknown
Apparent Declination
Unknown
Sunlit
N/A
Visualization observer readout
Local Sidereal Time
07:47:30
Azimuth
Unknown
Elevation
Unknown
Doppler factor
Unknown
Orbital elements
Apogee altitude
5,485.648 km
Perigee altitude
1,204.153 km
Semi-major axis
9,723.038 km
Eccentricity
0.22017
Inclination
88.1455°
RAAN
51.9789°
Arg. of periapsis
338.4062°
True anomaly
21.69586°
Mean anomaly
13.643°
Eccentric anomaly
17.41948°
Mean motion
2.26381 °/min
Orbital period
159.02 mins
BSTAR
-0.22142
Loading maneuver chart data...
Computing Atmospheric mass density...
Loading historical data...
Loading historical data...
Loading historical data...
Loading historical data...
Loading historical data...
Loading historical data...
Loading historical data...

Documentation

Showing up to 5 results
|